Location: eljas
(40.1958°N, 6.8661°W)
Time: 00:37:58
(UTC+02:00)

Daily predictions for brighter satellites

Satellite Brightness Start Highest point End
(mag) Time Altitude Azimuth Time Altitude Azimuth Time Altitude Azimuth
Meteor 1-10 Rocket 4.3 00:04:52 57° SSW 00:06:10 80° W 00:12:03 10° N
SL-08 R/B 4.5 00:00:12 10° N 00:06:16 60° E 00:06:27 60° E
CZ-4C R/B 3.4 00:00:05 10° NNW 00:06:56 48° NE 00:08:54 40° E
COSMOS 2428 3.3 00:05:33 15° SW 00:10:07 53° WNW 00:15:43 10° NNE
Meteor 1-11 Rocket 3.8 00:05:53 10° N 00:10:58 59° ENE 00:10:58 59° ENE
Cosmos 2360 Rocket 4.3 00:07:57 10° WSW 00:12:31 25° NW 00:17:07 10° N
SL-08 RB Rocket 4.3 00:13:06 50° W 00:13:06 50° W 00:17:21 10° NNW
H-2A R/B 3.1 00:22:54 43° N 00:22:54 43° N 00:25:54 10° NNW
Cosmos 1980 4.2 00:23:29 50° NE 00:23:29 50° NE 00:27:42 10° NNE
USA 234 4.1 00:22:00 33° SW 00:22:49 34° SW 00:28:41 10° WNW
Cosmos 1844 3.7 00:18:43 10° NNW 00:24:10 73° W 00:24:10 73° W
SL-19 R/B 4.3 00:19:48 10° NNE 00:25:29 76° ENE 00:25:29 76° ENE
Landsat 7 4.4 00:28:30 55° NW 00:28:30 55° NW 00:32:25 10° NNW
SL-16 R/B 4.1 00:31:05 17° NE 00:31:05 17° NE 00:32:42 10° NE
ATLAS 5 CENTAUR R/B 4.2 00:24:32 10° WNW 00:29:04 21° WSW 00:30:27 20° SW
S3M 3.9 00:33:57 82° W 00:34:02 82° W 00:40:16 10° N
ARGOS 4.5 00:33:20 29° WSW 00:34:04 30° W 00:38:47 10° NW
H-2A R/B 2.9 00:38:31 41° W 00:38:31 41° W 00:42:45 10° NNW
Terra 2.8 00:44:06 46° NW 00:44:06 46° NW 00:47:32 10° NNW
Cosmos 2237 Rocket 2.6 00:50:33 60° N 00:50:33 60° N 00:55:16 10° NNE
Cosmos 2333 Rocket 2.7 00:49:34 55° WNW 00:49:50 56° WNW 00:55:31 10° NNE
Gbstr 26 Del rocket 4.4 00:52:30 76° ESE 00:52:30 76° ESE 01:00:16 10° NE
Cosmos 2278 Rocket 2.6 00:49:26 10° NNW 00:54:01 58° NW 00:54:01 58° NW
Cosmos 1844 Rocket 4.1 00:51:40 10° NW 00:55:55 28° W 00:55:55 28° W
Cosmos 1745 Rocket 4.5 01:02:03 10° NNW 01:07:58 53° W 01:07:58 53° W
Cosmos 2285 Rocket 4.5 01:16:32 54° NNE 01:16:32 54° NNE 01:21:23 10° NNE
Cosmos 2219 Rocket 3.9 01:14:20 23° W 01:16:15 28° NW 01:21:02 10° N
ATLAS 2AS CENTAUR R/B 3.4 01:30:07 50° ENE 01:30:07 50° ENE 01:36:14 10° NE
ATLAS CENTAUR R/B 4.4 01:50:22 13° NNE 01:50:22 13° NNE 01:50:49 10° NNE
Cosmos 2369 Rocket 4.0 01:46:28 10° N 01:50:27 24° NE 01:50:27 24° NE
CZ-4C R/B 3.8 01:48:46 10° NW 01:54:05 38° W 01:54:05 38° W
ATLAS 3B R/B 3.2 01:53:29 10° NNW 01:59:28 52° NNE 01:59:28 52° NNE
Cosmos 1943 Rocket 4.3 01:59:20 10° N 02:02:59 17° NE 02:03:37 17° ENE
SL-16 R/B 3.5 02:12:55 35° NNW 02:12:55 35° NNW 02:17:06 10° N
USA 238 DEB 4.2 02:14:36 10° NNW 02:21:17 56° NE 02:21:17 56° NE
USA 238 4.2 02:14:42 10° NNW 02:21:25 56° NE 02:21:25 56° NE
CZ-2C R/B 4.1 02:36:26 10° N 02:39:59 34° NNW 02:39:59 34° NNW
Cosmos 1943 4.2 03:08:02 42° NNE 03:08:02 42° NNE 03:11:44 10° NNE
NOSS 3-4 (A) 4.2 03:20:32 46° ENE 03:20:32 46° ENE 03:25:16 10° NE
NOSS 3-4 (C) 4.2 03:20:38 46° ENE 03:20:38 46° ENE 03:25:22 10° NE
ATLAS 2AS CENTAUR R/B 4.1 03:17:30 31° WNW 03:19:47 37° NW 03:27:12 10° NNE
NOSS 3-2 (A) 4.0 03:25:39 10° NNW 03:33:14 80° NE 03:33:57 74° ESE
Cosmos 2369 Rocket 3.9 03:29:53 10° NW 03:32:13 25° NW 03:32:13 25° NW
Cosmos 1943 Rocket 3.3 03:41:44 10° NNW 03:45:06 37° NNW 03:45:06 37° NNW
ATLAS 3B R/B 4.5 03:44:52 10° NW 03:46:42 17° WNW 03:46:42 17° WNW
Cosmos 2218 Rocket 4.3 03:45:09 10° NNW 03:50:06 57° NNW 03:50:06 57° NNW
Cosmos 2366 rocket 4.2 03:46:19 10° N 03:51:38 64° NNW 03:51:38 64° NNW
SL-16 R/B 3.9 03:53:35 20° ESE 03:56:50 33° ENE 04:02:14 10° N
SL-08 R/B 4.3 04:05:47 46° NNE 04:05:47 46° NNE 04:09:25 10° N
COSMOS 2406 3.6 04:07:15 59° E 04:07:15 59° E 04:12:22 10° NNE
Lacrosse 5 rocket 3.3 04:09:51 27° E 04:09:51 27° E 04:12:23 10° ENE
Meteor 1-22 Rocket 4.4 04:12:07 10° N 04:16:47 64° N 04:16:47 64° N
Cosmos 2112 Rocket 4.3 04:19:14 62° N 04:19:14 62° N 04:23:39 10° NNE
USA 215 3.7 04:15:23 10° NE 04:21:43 54° NW 04:23:09 46° WNW
COSMOS 2455 2.8 04:19:32 10° NNW 04:25:10 78° NW 04:25:10 78° NW
Cosmos 1656 Rocket 4.0 04:20:33 10° NNW 04:24:45 55° NNW 04:24:45 55° NNW
IRS-P3 4.3 04:23:35 10° N 04:28:23 66° NNW 04:28:23 66° NNW
NOSS 2-2 (E) 4.5 04:34:05 43° ENE 04:34:05 43° ENE 04:37:32 10° NE
RESURS DK-1 3.7 04:35:20 35° N 04:35:20 35° N 04:37:59 10° NNE
Cosmos 1624 Rocket 4.4 04:29:13 10° NNW 04:34:22 58° ENE 04:35:28 48° ESE
Nadezhda 3 Rocket 3.9 04:39:34 67° WSW 04:39:57 69° W 04:46:18 10° N
NOSS 3-2 (C) 4.1 04:37:01 10° NW 04:44:22 52° WSW 04:44:30 52° WSW
ADEOS Rocket 3.4 04:38:51 10° NNE 04:44:58 65° ESE 04:47:09 43° SSE
Spot 4 Rocket 4.0 04:41:11 10° NNE 04:46:21 75° ESE 04:46:43 71° SE
Cosmos 2056 Rocket 3.6 04:42:49 10° NNW 04:48:09 73° ENE 04:49:27 50° SE
USA 32 4.2 04:48:00 56° SE 04:48:50 66° E 04:54:02 10° N
CENTAUR R/B 3.3 04:41:01 10° NNW 04:48:56 72° NE 04:57:22 10° SE
Cosmos 1680 Rocket 4.4 04:51:28 35° WNW 04:51:28 35° WNW 04:56:03 10° N
USA 267 3.4 04:46:53 10° ESE 04:53:25 75° NE 04:59:57 10° NW
CBERS-1 4.4 04:49:26 10° N 04:54:08 49° WNW 04:54:08 49° WNW
AQUA 4.3 04:50:54 10° N 04:55:03 48° NW 04:55:03 48° NW
Resurs 1-4 Rocket 2.1 04:50:40 10° NNE 04:55:58 78° ESE 04:56:48 63° S
Cosmos 921 Rocket 3.3 04:52:07 10° NNW 04:56:37 69° ENE 04:57:04 63° ESE
Cosmos 1470 4.2 04:53:28 10° N 04:57:04 34° ENE 04:58:10 29° ESE
Cosmos 1758 Rocket 3.6 04:57:30 72° E 04:57:30 72° E 05:01:45 10° NNE
COBE Rocket 4.1 04:54:05 10° NNE 04:59:05 65° E 05:00:01 53° SSE
NPP 4.3 04:57:08 10° N 05:02:07 40° WNW 05:02:17 40° WNW
UNK 3.6 05:04:10 76° WNW 05:04:10 76° WNW 05:08:36 10° NNW
Cosmos 389 Rocket 4.0 05:01:54 10° N 05:05:17 36° ENE 05:06:08 31° ESE
USA 161 3.9 05:06:04 20° E 05:06:35 21° ENE 05:08:51 10° NNE
Cosmos 1953 2.6 05:03:38 10° N 05:07:00 61° NNW 05:07:00 61° NNW
Cosmos 1727 Rocket 4.5 05:04:15 24° SSE 05:07:50 56° E 05:13:50 10° NNE
Tiangong 1 3.8 05:10:30 12° E 05:10:30 12° E 05:10:47 10° E
NOSS 2-2 (D) 3.4 05:09:32 74° NW 05:09:32 74° NW 05:14:03 10° NNE
IRS-1D 3.5 05:05:00 10° N 05:10:14 76° WNW 05:11:13 58° SW
ADEOS 3.5 05:05:56 10° N 05:11:10 78° WNW 05:12:10 58° SW
CZ-2D R/B 2.0 05:07:15 10° N 05:12:33 76° WNW 05:13:38 56° SW
UNKNOWN OBJECT B 3.3 05:09:31 10° NNE 05:13:29 56° E 05:14:08 49° SE
ARIANE 5 R/B 2.5 05:12:30 10° N 05:17:43 69° WNW 05:18:51 53° SW
Cosmos 1953 Rocket 3.6 05:19:03 61° W 05:19:09 62° W 05:23:36 10° N
CZ-2D R/B 3.9 05:16:15 10° NNE 05:20:15 55° E 05:21:14 42° SSE
Cosmos 2369 4.4 05:16:23 10° NNW 05:22:01 54° ENE 05:27:37 10° SE
Cosmos 1452 Rocket 4.0 05:17:47 10° NNW 05:22:59 61° ENE 05:28:11 10° SSE
Cosmos 1758 4.2 05:21:40 10° NNW 05:24:41 37° WNW 05:24:41 37° WNW
Cosmos 1821 Rocket 4.3 05:19:49 10° NNW 05:25:35 45° W 05:26:54 40° WSW
Cosmos 1733 3.2 05:21:47 10° N 05:25:36 79° E 05:26:15 58° SSE
SL-27 R/B 4.3 05:26:51 21° NW 05:26:51 21° NW 05:28:58 10° N
NOSS 2-2 (C) 3.8 05:27:22 45° WNW 05:27:52 48° NW 05:32:22 10° NNE
Cosmos 1833 Rocket 3.5 05:32:44 18° S 05:36:33 46° ESE 05:41:53 10° NE
Intercosmos 25 4.4 05:30:47 10° N 05:37:53 72° E 05:42:02 11° SSE
Cosmos 2082 Rocket 2.8 05:35:25 20° S 05:39:11 54° ESE 05:44:44 10° NNE
Meteor 2-5 Rocket 3.9 05:35:21 20° S 05:39:21 73° E 05:45:11 10° NNE
Cosmos 1271 Rocket 4.4 05:37:03 10° NW 05:38:44 20° NW 05:38:44 20° NW
SL-16 R/B 3.0 05:38:41 33° SW 05:40:19 39° W 05:46:03 10° NNW
Cosmos 1934 Rocket 4.4 05:38:22 10° NNW 05:44:15 42° W 05:46:50 29° SW
Cosmos 1818 4.1 05:43:46 31° WSW 05:45:52 46° NW 05:51:07 10° NNE
Cosmos 1605 Rocket 4.0 05:40:20 10° NNW 05:46:25 59° W 05:50:40 20° SSW
Lacrosse 5 rocket 2.7 05:45:33 25° W 05:47:22 34° NW 05:51:38 10° NNE
MOS 1 Rocket 3.1 05:44:53 10° NNE 05:49:16 86° ESE 05:52:00 24° S
Cosmos 1339 Rocket 4.4 05:46:58 23° SSW 05:50:50 71° W 05:56:57 10° N
GEOS 3 Rocket 4.3 05:47:22 10° NNE 05:52:21 44° NW 05:55:00 25° WSW
Orbus 7S? 3.7 05:52:35 10° NW 05:55:55 46° NE 05:58:26 10° ESE
ADEOS II 3.1 05:53:38 10° NNE 05:58:41 46° E 06:03:43 10° S
Cosmos 1269 Rocket 4.2 05:56:07 16° S 06:00:18 72° ESE 06:05:35 10° NNE
COSMOS 2487 2.9 05:59:50 37° WSW 06:00:42 46° WNW 06:04:10 10° N
MOS 1-B 4.3 05:55:57 10° NNE 06:01:47 87° WNW 06:06:53 14° SSW
Meteor 1-16 Rocket 4.0 05:59:02 10° NNW 06:04:25 80° W 06:09:42 10° S
Okean O Rocket 2.4 06:00:19 10° NNE 06:04:39 51° E 06:08:56 10° S
MOZ.5/SAFIR/RUBIN 5/SL-8 4.1 06:04:24 20° SSW 06:07:14 42° W 06:11:41 10° NNW
CZ-4B R/B 3.6 06:05:51 10° NNE 06:10:11 61° E 06:14:37 10° S
Landsat 4 3.7 06:11:27 10° S 06:15:06 58° WSW 06:18:49 10° NNW
Cosmos 2100 Rocket 3.9 06:13:08 10° N 06:19:19 77° W 06:25:27 10° S
Cosmos 2098 Rocket 4.0 06:18:43 10° NW 06:19:56 15° WNW 06:19:56 15° WNW
Cosmos 1707 3.9 06:19:26 21° WSW 06:20:46 25° WNW 06:24:02 10° NNW
In-Cosmos 22 4.4 06:16:46 10° S 06:22:01 68° E 06:27:16 10° NNE
Cosmos 2173 Rocket 3.9 06:17:20 10° N 06:23:38 79° W 06:29:48 10° S
Cosmos 1378 4.0 06:24:29 20° SW 06:26:23 31° WNW 06:29:46 10° NNW
Cosmos-2242 4.3 06:23:57 10° NW 06:27:19 22° W 06:29:13 17° WSW
Delta 2 Rocket 3.9 06:26:08 20° SW 06:27:27 27° SSW 06:30:20 10° SE
ADEOS Rocket 4.5 06:25:36 10° NNW 06:30:03 21° WNW 06:34:06 12° WSW
Cosmos 1842 Rocket 4.0 06:30:10 10° NNW 06:34:20 42° W 06:38:31 10° SSW
Resurs 1-4 Rocket 4.0 06:32:31 10° NNW 06:35:07 14° WNW 06:37:42 10° W
Meteor 1-24 Rocket 3.8 06:29:56 10° SSW 06:35:19 61° WNW 06:40:57 10° N
Cosmos 158 Rocket 4.0 06:31:08 11° SSW 06:35:50 60° WNW 06:40:58 10° NNE
USA 161 3.6 06:36:42 13° W 06:36:42 13° W 06:37:52 10° WNW
USA 267 4.0 06:31:13 10° S 06:36:45 29° SW 06:42:18 10° WNW
PSLV R/B 3.5 06:34:01 10° N 06:38:24 86° WNW 06:42:43 10° SSW
CENTAUR R/B 3.9 06:32:39 10° NW 06:39:14 28° WSW 06:46:03 10° SSW
Tiangong 1 2.1 06:41:51 14° WSW 06:43:32 23° SSW 06:45:53 10° SSE
Cosmos 972 Rocket 4.3 06:38:24 10° NNW 06:44:45 69° WSW 06:50:20 10° S
NOSS 8 (H) 4.5 06:42:06 10° SSW 06:45:29 79° ESE 06:49:00 10° NE
Cosmos 2221 2.4 06:42:52 10° N 06:47:10 80° W 06:51:25 10° S
Cosmos 1697 Rocket 2.7 06:43:25 10° NNW 06:48:56 60° WSW 06:54:25 10° S
Cosmos 2061 Rocket 4.2 06:43:35 10° NNW 06:49:35 52° W 06:55:32 10° SSW
CZ-4B DEB 4.2 06:46:35 10° N 06:52:03 68° WNW 06:57:27 10° SSW
Cosmos 494 Rocket 4.3 06:49:09 10° S 06:54:13 68° ESE 06:59:19 10° NNE
Cosmos 2123 Rocket 4.0 06:55:05 10° SSW 07:01:23 73° W 07:07:41 10° N
Cosmos 2016 Rocket 4.2 06:55:38 10° NNW 07:01:42 54° W 07:07:50 10° SSW
SL-24 R/B 4.4 06:58:58 10° N 07:03:49 90° W 07:08:40 10° S
